Tracking 22882 objects as of 18-Apr-2021
HD Live streaming from Space Station
objects crossing your sky now

COSMOS 595

Track COSMOS 595 now!
10-day predictions
COSMOS 595 is classified as:


NORAD ID: 6852
Int'l Code: 1973-069H
Perigee: 1,405.9 km
Apogee: 1,491.9 km
Inclination: 74.0 °
Period: 114.7 minutes
Semi major axis: 7819 km
RCS: 0.6846 m2 (medium)
Launch date: October 2, 1973
Source: Commonwealth of Independent States (former USSR) (CIS)
Launch site: PLESETSK MISSILE AND SPACE COMPLEX (PKMTR)
aabbcc
Your satellite tracking list
Your tracking list is empty




NASA's NSSDC Master Catalog

Two Line Element Set (TLE):
1 06852U 73069H   21108.52767434  .00000000  00000-0  94014-4 0  9998
2 06852  74.0041  38.8974 0055004  84.2243  91.3574 12.55446944178879
Source of the keplerian elements: AFSPC